• Em Portugal
  • Lista de países
  • Para 7 dias
  • Temperatura da água
  • Mapas de satélite
  • Mapa do tempo
  • Widgets de tempo
  • user-avatar
    Iniciar Sessão

    Previsão horária em Slonino

    Hoje, 18 Junho, Segunda-feira

    Tempo Temperatura Precipitação Vento Pressão Humidade
    00:00 +14°C° 0 mm 1 m/s 758 mmHg 87%
    01:00 +15°C° 0 mm 1 m/s 758 mmHg 87%
    02:00 +14°C° 0 mm 2 m/s 758 mmHg 87%
    03:00 +14°C° 0 mm 2 m/s 758 mmHg 88%
    04:00 +14°C° 0 mm 2 m/s 758 mmHg 89%
    05:00 +16°C° 0 mm 2 m/s 759 mmHg 83%
    06:00 +17°C° 0 mm 2 m/s 759 mmHg 77%
    07:00 +19°C° 0 mm 2 m/s 759 mmHg 71%
    08:00 +20°C° 0 mm 2 m/s 759 mmHg 64%
    09:00 +21°C° 0 mm 2 m/s 759 mmHg 58%
    10:00 +23°C° 0 mm 2 m/s 760 mmHg 52%
    11:00 +23°C° 0,1 mm 2 m/s 759 mmHg 54%
    12:00 +22°C° 0,1 mm 3 m/s 759 mmHg 56%
    13:00 +22°C° 0,1 mm 3 m/s 759 mmHg 57%
    14:00 +22°C° 0,1 mm 3 m/s 759 mmHg 58%
    15:00 +22°C° 0,1 mm 3 m/s 759 mmHg 58%
    16:00 +22°C° 0,1 mm 3 m/s 759 mmHg 58%
    17:00 +23°C° 0 mm 2 m/s 759 mmHg 62%
    18:00 +21°C° 0 mm 2 m/s 759 mmHg 67%
    19:00 +21°C° 0 mm 1 m/s 759 mmHg 71%
    20:00 +20°C° 0 mm 1 m/s 759 mmHg 75%
    21:00 +18°C° 0 mm 1 m/s 759 mmHg 79%
    22:00 +16°C° 0 mm 2 m/s 759 mmHg 82%
    23:00 +16°C° 0 mm 2 m/s 759 mmHg 85%

    Amanhã, 19 Junho, Terça-feira

    Tempo Temperatura Precipitação Vento Pressão Humidade
    00:00 +15°C° 0 mm 2 m/s 759 mmHg 88%
    01:00 +14°C° 0 mm 3 m/s 759 mmHg 90%
    02:00 +14°C° 0 mm 3 m/s 759 mmHg 91%
    03:00 +14°C° 0 mm 3 m/s 759 mmHg 93%
    04:00 +14°C° 0 mm 3 m/s 759 mmHg 94%
    05:00 +15°C° 0,1 mm 4 m/s 759 mmHg 92%
    06:00 +17°C° 0,1 mm 4 m/s 759 mmHg 89%
    07:00 +18°C° 0,1 mm 4 m/s 759 mmHg 87%
    08:00 +19°C° 0 mm 5 m/s 759 mmHg 78%
    09:00 +21°C° 0 mm 5 m/s 759 mmHg 69%
    10:00 +22°C° 0 mm 6 m/s 759 mmHg 60%
    11:00 +23°C° 0 mm 6 m/s 759 mmHg 58%
    12:00 +23°C° 0 mm 6 m/s 759 mmHg 55%
    13:00 +25°C° 0 mm 5 m/s 759 mmHg 52%
    14:00 +25°C° 0 mm 5 m/s 759 mmHg 54%
    15:00 +25°C° 0 mm 5 m/s 759 mmHg 56%
    16:00 +25°C° 0 mm 5 m/s 759 mmHg 59%
    17:00 +23°C° 0 mm 5 m/s 760 mmHg 65%
    18:00 +21°C° 0 mm 5 m/s 760 mmHg 71%
    19:00 +20°C° 0 mm 5 m/s 760 mmHg 78%
    20:00 +19°C° 0 mm 4 m/s 760 mmHg 82%
    21:00 +17°C° 0 mm 4 m/s 761 mmHg 86%
    22:00 +16°C° 0 mm 3 m/s 761 mmHg 90%
    23:00 +14°C° 0 mm 3 m/s 761 mmHg 90%

    Depois de amanhã, 20 Junho, Quarta-feira

    Tempo Temperatura Precipitação Vento Pressão Humidade
    00:00 +13°C° 0 mm 3 m/s 762 mmHg 91%
    01:00 +12°C° 0 mm 3 m/s 762 mmHg 91%
    02:00 +12°C° 0 mm 3 m/s 762 mmHg 91%
    03:00 +12°C° 0 mm 3 m/s 762 mmHg 91%
    04:00 +12°C° 0 mm 2 m/s 762 mmHg 91%
    05:00 +13°C° 0 mm 3 m/s 762 mmHg 83%
    06:00 +16°C° 0 mm 3 m/s 763 mmHg 75%
    07:00 +17°C° 0 mm 3 m/s 763 mmHg 67%
    08:00 +19°C° 0 mm 3 m/s 763 mmHg 60%
    09:00 +20°C° 0 mm 3 m/s 763 mmHg 52%
    10:00 +22°C° 0 mm 3 m/s 763 mmHg 44%
    11:00 +24°C° 0 mm 3 m/s 762 mmHg 43%
    12:00 +25°C° 0 mm 4 m/s 762 mmHg 41%
    13:00 +26°C° 0 mm 4 m/s 762 mmHg 39%
    14:00 +26°C° 0 mm 3 m/s 761 mmHg 41%
    15:00 +26°C° 0 mm 3 m/s 761 mmHg 43%
    16:00 +27°C° 0 mm 3 m/s 760 mmHg 45%
    17:00 +26°C° 0 mm 2 m/s 760 mmHg 51%
    18:00 +25°C° 0 mm 2 m/s 760 mmHg 57%
    19:00 +24°C° 0 mm 1 m/s 759 mmHg 63%
    20:00 +23°C° 0 mm 2 m/s 759 mmHg 66%
    21:00 +21°C° 0 mm 2 m/s 759 mmHg 70%
    22:00 +19°C° 0 mm 3 m/s 759 mmHg 73%
    23:00 +19°C° 0 mm 3 m/s 758 mmHg 75%

    21 Junho, Quinta-feira

    Tempo Temperatura Precipitação Vento Pressão Humidade
    00:00 +19°C° 0 mm 3 m/s 758 mmHg 77%
    01:00 +19°C° 0 mm 4 m/s 757 mmHg 79%
    02:00 +18°C° 0 mm 4 m/s 757 mmHg 81%
    03:00 +18°C° 0 mm 4 m/s 756 mmHg 83%
    04:00 +18°C° 0 mm 4 m/s 756 mmHg 85%
    05:00 +20°C° 0,1 mm 4 m/s 755 mmHg 82%
    06:00 +21°C° 0,1 mm 5 m/s 755 mmHg 78%
    07:00 +23°C° 0,1 mm 5 m/s 754 mmHg 75%
    08:00 +23°C° 0,5 mm 5 m/s 754 mmHg 73%
    09:00 +25°C° 0,5 mm 5 m/s 753 mmHg 70%
    10:00 +26°C° 0,5 mm 5 m/s 753 mmHg 68%
    11:00 +25°C° 0,7 mm 5 m/s 752 mmHg 73%
    12:00 +23°C° 0,7 mm 5 m/s 752 mmHg 78%
    13:00 +22°C° 0,7 mm 5 m/s 752 mmHg 83%
    14:00 +21°C° 0,8 mm 5 m/s 751 mmHg 83%
    15:00 +19°C° 0,8 mm 5 m/s 751 mmHg 84%
    16:00 +17°C° 0,8 mm 6 m/s 751 mmHg 85%
    17:00 +16°C° 0 mm 6 m/s 751 mmHg 83%
    18:00 +16°C° 0 mm 6 m/s 751 mmHg 80%
    19:00 +15°C° 0 mm 6 m/s 751 mmHg 77%
    20:00 +14°C° 0,1 mm 6 m/s 752 mmHg 78%
    21:00 +12°C° 0,1 mm 7 m/s 752 mmHg 78%
    22:00 +11°C° 0,1 mm 7 m/s 752 mmHg 79%
    23:00 +10°C° 0,1 mm 7 m/s 752 mmHg 79%

    22 Junho, Sexta-feira

    Tempo Temperatura Precipitação Vento Pressão Humidade
    00:00 +10°C° 0,1 mm 7 m/s 752 mmHg 79%
    01:00 +10°C° 0,1 mm 7 m/s 752 mmHg 80%
    02:00 +9°C° 0 mm 7 m/s 753 mmHg 78%
    03:00 +9°C° 0 mm 7 m/s 753 mmHg 77%
    04:00 +9°C° 0 mm 7 m/s 753 mmHg 76%
    05:00 +10°C° 0,1 mm 8 m/s 753 mmHg 72%
    06:00 +10°C° 0,1 mm 8 m/s 753 mmHg 68%
    07:00 +11°C° 0,1 mm 9 m/s 753 mmHg 63%
    08:00 +12°C° 0,2 mm 9 m/s 753 mmHg 62%
    09:00 +12°C° 0,2 mm 9 m/s 753 mmHg 60%
    10:00 +13°C° 0,2 mm 9 m/s 754 mmHg 59%
    11:00 +13°C° 0,3 mm 9 m/s 753 mmHg 59%
    12:00 +15°C° 0,3 mm 9 m/s 753 mmHg 58%
    13:00 +16°C° 0,3 mm 8 m/s 753 mmHg 58%
    14:00 +16°C° 0,3 mm 8 m/s 753 mmHg 59%
    15:00 +16°C° 0,3 mm 7 m/s 753 mmHg 60%
    16:00 +16°C° 0,3 mm 7 m/s 753 mmHg 61%
    17:00 +16°C° 0,1 mm 6 m/s 753 mmHg 64%
    18:00 +15°C° 0,1 mm 5 m/s 753 mmHg 66%
    19:00 +15°C° 0,1 mm 4 m/s 753 mmHg 69%
    20:00 +13°C° 0,1 mm 4 m/s 754 mmHg 75%
    21:00 +12°C° 0,1 mm 4 m/s 754 mmHg 82%
    22:00 +10°C° 0,1 mm 3 m/s 754 mmHg 88%
    23:00 +10°C° 0 mm 4 m/s 754 mmHg 87%

    23 Junho, Sábado

    Tempo Temperatura Precipitação Vento Pressão Humidade
    00:00 +10°C° 0 mm 4 m/s 754 mmHg 86%
    01:00 +10°C° 0 mm 4 m/s 755 mmHg 86%
    02:00 +10°C° 0 mm 4 m/s 755 mmHg 84%
    03:00 +10°C° 0 mm 4 m/s 755 mmHg 83%
    04:00 +10°C° 0 mm 4 m/s 755 mmHg 81%
    05:00 +10°C° 0,1 mm 5 m/s 755 mmHg 78%
    06:00 +13°C° 0,1 mm 5 m/s 755 mmHg 74%
    07:00 +14°C° 0,1 mm 5 m/s 756 mmHg 71%
    08:00 +14°C° 0,4 mm 5 m/s 756 mmHg 75%
    09:00 +14°C° 0,4 mm 5 m/s 756 mmHg 78%
    10:00 +14°C° 0,4 mm 5 m/s 756 mmHg 82%
    11:00 +15°C° 0,3 mm 6 m/s 756 mmHg 79%
    12:00 +15°C° 0,3 mm 6 m/s 756 mmHg 76%
    13:00 +16°C° 0,3 mm 6 m/s 757 mmHg 73%
    14:00 +17°C° 0,2 mm 6 m/s 757 mmHg 67%
    15:00 +19°C° 0,2 mm 6 m/s 757 mmHg 62%
    16:00 +19°C° 0,2 mm 6 m/s 757 mmHg 56%
    17:00 +19°C° 0,1 mm 5 m/s 757 mmHg 59%
    18:00 +17°C° 0,1 mm 5 m/s 757 mmHg 62%
    19:00 +17°C° 0,1 mm 4 m/s 757 mmHg 65%
    20:00 +15°C° 0 mm 4 m/s 757 mmHg 71%
    21:00 +13°C° 0 mm 3 m/s 758 mmHg 78%
    22:00 +12°C° 0 mm 3 m/s 758 mmHg 84%
    23:00 +12°C° 0 mm 3 m/s 758 mmHg 87%
    Mostrar mais